Regional Weather Roundup
Issued by NWS

Home | Current Version | Previous Version | Text Only | Print | Product List | Glossary On
Versions: 1 2 3 4 5 6 7 8 9 10 11 12 13 14 15 16 17 18 19 20 21 22 23 24 25 26 27 28 29 30 31 32 33 34 35 36 37 38 39 40 41 42 43 44 45 46 47 48 49 50
000
ASUS43 KDTX 172010
RWRMI
MICHIGAN HOURLY REGIONAL WEATHER ROUNDUP
NATIONAL WEATHER SERVICE DETROIT/PONTIAC MI
300 PM EST SAT FEB 17 2018

NOTE: "FAIR" INDICATES FEW OR NO CLOUDS BELOW 12,000 FEET WITH NO
SIGNIFICANT WEATHER AND/OR OBSTRUCTION TO VISIBILITY.

MIZ047>049-052>055-059>063-066>070-074>076-081>083-172100-
SOUTHEAST LOWER MICHIGAN

CITY           SKY/WX    TMP DP  RH WIND       PRES   REMARKS
ADRIAN         FAIR      31  24  75 SW9       29.99F WCI  23
ALMA           FAIR      32  11  42 SW5       29.95F WCI  27
ANN ARBOR      FAIR      31  23  72 S8        29.98F WCI  23
BAD AXE        FAIR      32  13  46 SW13      29.95F WCI  22
CARO           FAIR      35  17  47 SW13      29.95F WCI  26
DETROIT CITY   FAIR      32  23  69 S10       29.98F WCI  24
DETROIT        CLOUDY    33  23  66 S9        29.99F WCI  25
FLINT          FAIR      33  22  63 SW12      29.97F WCI  24
GROSSE ILE     FAIR      32  27  80 S7        29.99F WCI  26
HILLSDALE      FAIR      32  23  69 S9        29.93F WCI  24
HOWELL         PTSUNNY   32  24  70 SW7       29.96F WCI  26

CITY           SKY/WX    TMP DP  RH WIND       PRES   REMARKS
JACKSON        FAIR      34  22  61 S10       29.95F WCI  26
LAMBERTVILLE   FAIR      33  24  70 S5        29.99F WCI  28
LANSING        PTSUNNY   34  22  61 SW10      29.96F WCI  26
LAPEER         FAIR      33  21  60 SW12      29.97F WCI  25
MASON          FAIR      34  20  56 SW9       29.96F WCI  27
MONROE         FAIR      33  23  67 SW7       29.99F WCI  27
MT. CLEMENS    PTSUNNY   33  23  66 SW10      29.97F WCI  25
PONTIAC        CLOUDY    31  22  69 S9        29.95F WCI  23
PORT HOPE        N/A     32  14  47 W9G20     29.94F WCI  24
PORT HURON     FAIR      32  21  64 S9        29.98F WCI  24
TRI CITIES     FAIR      31  11  43 SW16      29.96F WCI  20
MIDLAND        PTSUNNY   32  10  39 SW9       29.95F WCI  24
TROY           FAIR      33  21  62 SW10G16   30.00F WCI  25
SAGINAW HB     FAIR      32  18  55 SW15      29.96F WCI  22
$$
MIZ043>046-050>051-056>058-064>065-071>073-077>080-172100-
SOUTHWEST LOWER MICHIGAN

CITY           SKY/WX    TMP DP  RH WIND       PRES   REMARKS
BATTLE CREEK   FAIR      33  23  66 SW12      29.96F WCI  24
BENTON HARBOR  CLOUDY    35  23  61 SW7       29.97F WCI  29
BIG RAPIDS     CLOUDY    29  15  55 W7        29.90F WCI  22
COLDWATER      FAIR      33  24  69 SW7       29.96F WCI  27
FREMONT        PTSUNNY   31  19  58 S12       29.92F WCI  22
HOLLAND        CLOUDY    32  24  72 W15       29.97F WCI  22
GRAND RAPIDS   CLOUDY    34  21  59 SW14      29.95F WCI  25
IONIA          FAIR      33  21  62 SW12      29.94F WCI  24
KALAMAZOO      PTSUNNY   34  22  61 SW8       29.97F WCI  27
LUDINGTON      CLOUDY    31  20  63 SW15      29.91F WCI  20
MARSHALL       PTSUNNY   33  21  63 SW6       29.95F WCI  27
MOUNT PLEASANT CLOUDY    32   6  33 W9        29.93F WCI  24
MUSKEGON       CLOUDY    31  24  75 S12       29.96F WCI  22
SOUTH HAVEN    CLOUDY    35  24  64 SW9       29.97F WCI  27
$$
MIZ016>042-172100-
NORTHERN LOWER MICHIGAN

CITY           SKY/WX    TMP DP  RH WIND       PRES   REMARKS
ALPENA         FAIR      34  12  40 SW16G22   29.86F WCI  24
BEAVER ISLAND  LGT SNOW  28  25  87 SW16G25   29.82F WCI  16
BELLAIRE       PTSUNNY   33  14  46 SW9       29.86F WCI  25
CADILLAC       PTSUNNY   30  12  48 SW16G24   29.85F WCI  18
CHARLEVOIX     CLOUDY    32  18  57 SW16G25   29.87F WCI  21
FRANKFORT      CLOUDY    32  20  60 SW12G21   29.88F WCI  23
GAYLORD        FAIR      29  10  45 SW20G30   29.81F WCI  16
GRAYLING       FAIR      30  10  42 SW14      29.84F WCI  20
HARBOR SPRINGS CLOUDY    31  20  62 W13G26    29.82F WCI  22
HOUGHTON LAKE  CLOUDY    30  12  47 SW14      29.88F WCI  19
MANISTEE       PTSUNNY   31  16  54 SW10      29.89F WCI  22
OSCODA         FAIR      32  12  44 SW10G22   29.90F WCI  24
PELLSTON       CLOUDY    32  19  58 SW20G31   29.82F WCI  20
ROGERS CITY    CLOUDY    35   9  34 SW14G21   29.85F WCI  26
TRAVERSE CITY  CLOUDY    34  12  40 SW14G28   29.86F WCI  25
$$
MIZ007>008-015-172100-
EASTERN UPPER MICHIGAN

CITY           SKY/WX    TMP DP  RH WIND       PRES   REMARKS
KINROSS        FAIR      30  20  66 SW17G23   29.79F WCI  18
MACKINAC ISLAN FAIR      30  20  66 SW20G37   29.80F WCI  18
NEWBERRY       PTSUNNY   25  17  69 SW13      29.76F WCI  14
S. S. MARIE    CLOUDY    32  18  56 SW16G29   29.77F WCI  21
MUNISING         N/A     29  12  49 S10G18    29.75S WCI  20
$$
MIZ004>006-011>014-085-172100-
CENTRAL UPPER MICHIGAN

CITY           SKY/WX    TMP DP  RH WIND       PRES   REMARKS
MANISTIQUE     CLOUDY    25  13  59 SW13G20   29.79F WCI  14
ESCANABA       CLOUDY    27  16  63 SW13      29.80F WCI  16
MENOMINEE      LGT SNOW  25  21  86 SW10      29.85F FOG     WCI  15
SAWYER-GWINN   SUNNY     28  14  54 SW14      29.72F WCI  17
$$
MIZ001>003-009>011-084-172100-
WESTERN UPPER MICHIGAN

CITY           SKY/WX    TMP DP  RH WIND       PRES   REMARKS
IRON MOUNTAIN  FAIR      28  18  66 SW8       29.75F WCI  20
HOUGHTON       PTSUNNY   25  16  68 W25G33    29.70S WCI   9
COPPER HARBOR    N/A     27  16  63 W10G20    29.71F WCI  17
IRONWOOD       FAIR      31  16  54 W17G24    29.73S WCI  19
$$

ABBREVIATIONS USED IN REMARKS
   TC - TEMPERATURE IN CELSIUS
  WCI - WIND CHILL INDEX
   HX - HEAT INDEX
  VSB - VISIBILITY




USA.gov is the U.S. government's official web portal to all federal, state and local government web resources and services.